CZ-4C DEB, 45484

Orbit data source: Space-Track

CZ-4C DEB, 45484 is space debris in LEO originally from a launch on Tue, 10 Apr 2018 UTC launched from the Jiuquan Satellite Launch Center, China (JSC). Debris objects in space refer to the collection of defunct objects orbiting the Earth. Examples of debris include non-operational satellites, rocket bodies, and fragments generated from explosions, collisions, or faulty payload assembly.

Loading next visibility...
Identifier
45484, 2018-034M
Orbit
LEO
Country
Flag of CNCN / PRC
Related business
Manufacturer
Unknown
Mission
Spacecraft
Bus & Motor
Unknown
Mass
Unknown
Launch date (UTC)
2018-04-10 (7 years ago)
Launch vehicle
Unknown
Launch site
Jiuquan Satellite Launch Center, China (JSC)
Object type
Payload
Rocket body
Debris
Shape & HBR
Unknown
Radar Cross Section
Small (<0.1 m²)

Expand to show TLE details & history
Last TLE update: 1 day ago

TLE from 1 day ago
0 CZ-4C DEB
1 45484U 18034M   25259.28470382 -.00000061  00000-0  42364-4 0  9999
2 45484  63.3885 103.7377 0241487   7.7258 352.7381 13.42922840330621
Epoch: 2025-09-16T06:49Z
TLE epoch observation values (Epoch: 2025-09-16T06:49:58.41Z)
Latitude
-0.00006°
Longitude
5.76709°
Altitude
921.129 km
Speed
7.48 km/s
True Right ascension
06h 54m 57s
True Declination
0° 00' 00"
Sunlit
Object was in daylight at epoch
Visualization orbit readout
Latitude
Unknown
Longitude
Unknown
Altitude
Unknown
Speed
Unknown
Apparent Right ascension
Unknown
Apparent Declination
Unknown
Sunlit
N/A
Visualization observer readout
Local Sidereal Time
11:21:05
Azimuth
Unknown
Elevation
Unknown
Doppler factor
Unknown
Orbital elements
Apogee altitude
1,277.763 km
Perigee altitude
916.722 km
Semi-major axis
7,475.379 km
Eccentricity
0.02415
Inclination
63.3885°
RAAN
103.7377°
Arg. of periapsis
7.7258°
True anomaly
352.37753°
Mean anomaly
352.7381°
Eccentric anomaly
352.55891°
Mean motion
3.3581 °/min
Orbital period
107.2 mins
BSTAR
0.000042364
Loading maneuver chart data...
Computing Atmospheric mass density...
Loading historical data...
Loading historical data...
Loading historical data...
Loading historical data...
Loading historical data...
Loading historical data...
Loading historical data...

Documentation

Showing up to 5 results
|